Theta_e
285 284 283 283 283 283 282 282 281 281 281 281 280 280 280 280 280 280 280 280 280 280 280 280 280 280 280 280 280 280 280 280 280 281 281 280 280 280 280 280 280 280
283 283 283 282 282 282 281 281 281 280 280 280 280 279 280 279 279 279 279 278 279 279 279 279 279 279 279 279 279 279 279 279 279 281 280 280 280 280 280 280 280 280
282 282 281 281 281 281 280 280 280 279 279 279 279 279 279 279 278 278 278 278 278 278 278 278 278 278 278 278 278 278 278 278 279 279 279 279 279 279 279 279 279 279
281 281 280 280 280 279 279 279 279 279 279 278 278 278 278 278 278 277 277 277 277 277 277 277 277 277 277 277 278 277 278 278 279 279 278 279 279 279 279 279 279 279
280 280 279 279 279 279 278 278 277 278 277 277 277 277 277 277 277 276 276 276 276 276 276 276 277 277 277 277 277 277 277 277 278 278 278 277 278 278 278 278 277 277
279 279 279 278 278 278 277 277 277 277 276 276 276 277 276 276 276 275 275 275 275 275 275 276 276 276 276 276 276 276 276 276 277 277 276 276 277 277 277 277 276 276
277 277 277 277 277 277 276 276 276 276 276 276 276 275 275 275 275 275 275 275 275 275 274 274 274 274 275 275 275 275 275 275 276 276 275 275 275 275 276 276 276 275
276 276 276 276 275 275 274 275 275 275 275 275 274 275 275 274 274 274 274 274 273 273 273 273 273 273 273 273 273 273 273 274 274 274 273 273 273 273 274 274 274 274
276 275 275 274 274 274 274 274 274 274 274 274 274 274 274 274 274 273 273 272 272 272 272 272 272 272 272 272 271 271 271 271 272 272 271 271 271 272 272 272 272 272
275 275 274 274 273 274 273 273 273 273 273 273 273 273 272 273 272 272 271 271 270 270 270 270 270 270 270 270 270 270 270 270 270 270 270 270 270 270 270 270 270 270
274 274 273 273 273 273 273 272 272 273 273 272 272 271 271 271 270 270 270 269 269 269 269 269 269 269 269 269 269 269 269 269 269 269 269 270 270 270 270 270 269 269
273 273 273 273 272 272 272 272 272 272 272 271 271 270 269 269 269 269 269 268 268 268 268 268 269 269 269 268 269 269 269 269 269 269 269 270 270 269 269 269 269 270
273 273 273 272 272 272 272 272 271 271 270 269 269 268 267 267 268 267 268 268 268 268 268 268 268 268 268 269 269 269 269 269 269 269 269 269 269 269 269 269 270 270
273 272 272 272 272 271 271 270 270 269 268 268 267 266 266 266 267 266 267 267 267 267 268 268 268 268 269 269 269 269 269 269 269 269 269 269 270 270 270 270 270 270
272 272 272 271 270 270 269 269 268 268 267 266 266 266 266 266 266 266 266 266 267 267 267 268 268 268 269 269 269 269 269 269 270 270 270 270 270 270 271 271 272 272
271 271 271 270 269 268 268 267 267 266 265 264 264 265 265 265 265 265 266 266 266 267 268 268 268 268 269 270 272 270 270 270 270 270 270 270 270 270 271 271 272 272
270 270 270 268 268 267 266 265 265 264 263 263 263 264 264 264 265 265 266 266 267 267 267 267 268 268 270 272 273 274 272 271 270 270 271 271 271 271 271 271 272 273
270 269 267 267 266 265 264 264 263 262 262 263 263 263 264 264 264 265 266 266 267 267 267 267 267 269 272 273 274 274 274 272 271 271 271 271 272 272 272 272 272 273
268 267 266 265 265 264 263 262 262 262 262 262 262 263 264 264 265 265 265 266 266 266 266 267 267 269 271 273 274 275 275 274 272 272 272 272 272 272 272 272 272 272
266 265 265 264 263 262 262 261 261 261 262 262 263 263 264 264 264 264 265 265 265 265 265 266 266 268 271 273 274 275 275 275 272 272 272 272 272 272 272 272 272 272
265 264 263 263 262 261 261 261 261 261 262 262 263 263 264 264 264 264 264 264 264 265 265 265 266 270 272 273 274 275 275 275 272 272 272 272 272 273 273 273 273 273
264 263 262 262 261 261 260 261 261 261 261 262 263 263 264 264 264 264 264 263 264 264 264 264 266 270 272 273 274 275 276 273 272 272 272 272 272 273 273 273 273 273
263 262 262 261 261 260 260 260 261 261 262 263 262 263 263 263 263 263 264 264 264 264 264 264 265 268 271 273 274 275 275 272 272 272 271 271 272 272 273 273 273 274
263 261 261 260 260 259 260 261 261 261 262 262 262 262 262 262 263 263 264 264 264 264 264 264 265 268 272 273 274 275 275 272 272 271 271 271 271 272 273 273 274 276
261 261 261 260 259 260 260 259 260 261 261 262 262 262 262 263 263 263 263 264 264 264 266 266 266 269 272 273 274 275 274 272 272 271 270 271 271 271 273 273 273 275
260 259 260 259 259 259 259 259 261 261 261 261 261 262 262 263 263 263 262 263 264 265 266 268 268 268 270 273 274 275 275 272 272 271 270 271 271 271 271 272 273 273
Wind_Speed
7 6 6 5 5 4 4 5 5 5 6 6 6 7 7 6 7 8 8 8 8 8 8 9 10 10 10 10 10 11 11 12 12 11 12 13 13 14 14 16 16 14
8 6 5 4 4 4 4 5 5 6 7 7 7 7 7 7 7 8 8 8 8 9 9 10 10 11 11 10 11 11 11 11 13 10 12 15 14 15 16 18 18 17
7 7 6 6 5 5 5 5 6 6 7 7 7 7 7 6 7 7 7 7 8 9 9 10 10 10 11 11 11 11 12 13 13 13 13 15 14 15 15 15 16 18
8 7 6 6 5 5 5 5 6 6 6 6 7 6 6 6 7 7 7 8 8 8 9 10 10 10 11 12 12 11 12 13 13 13 15 15 16 17 17 17 18 18
8 7 6 5 5 5 5 6 7 6 7 7 7 7 6 7 7 7 6 7 7 9 9 10 10 11 11 11 11 12 12 12 13 13 15 16 16 15 16 16 18 19
7 6 6 5 5 5 6 6 6 6 7 7 7 6 6 7 6 6 7 8 8 9 10 10 10 10 11 11 12 11 11 12 13 15 16 17 17 16 14 16 19 20
8 7 7 5 6 6 6 6 6 6 6 6 6 6 6 6 6 7 8 8 9 9 10 10 11 11 10 10 11 12 12 12 14 15 17 17 17 20 19 18 18 20
8 6 5 5 6 6 6 6 5 5 5 5 6 6 5 6 7 7 7 8 9 10 10 10 11 12 11 10 11 12 13 10 11 14 15 18 18 18 17 15 16 19
7 6 6 6 7 6 6 5 5 5 5 5 6 6 5 5 6 7 8 9 9 10 10 10 10 11 10 10 11 12 13 13 12 14 15 16 18 19 18 17 18 18
7 7 7 7 7 6 6 5 4 4 4 5 5 5 5 5 6 7 8 8 9 9 9 10 10 10 11 10 11 12 13 14 13 14 14 15 17 18 18 17 18 18
8 7 7 7 6 5 5 5 5 4 3 4 4 4 5 5 6 6 7 7 8 9 10 10 10 11 11 11 11 12 13 14 14 14 15 16 17 18 18 18 18 18
8 8 8 7 6 5 5 4 4 3 4 4 3 4 5 6 6 6 6 8 9 9 10 11 11 11 12 12 12 12 13 13 13 14 15 17 18 18 18 18 17 19
8 8 7 6 6 5 4 4 3 3 4 4 3 4 5 6 6 7 7 8 9 9 10 11 11 11 11 12 12 13 13 14 14 15 18 18 18 19 18 20 19 18
8 7 7 6 5 4 4 3 3 4 3 3 3 5 5 6 6 7 7 8 9 9 10 10 10 11 11 11 11 12 12 15 16 17 18 18 19 19 19 19 20 20
8 7 6 6 5 4 4 4 4 4 3 3 4 4 5 5 6 7 8 9 9 9 10 9 9 9 8 9 11 15 15 16 17 18 18 19 19 19 18 19 19 20
8 6 6 6 5 5 4 4 4 3 3 3 4 5 5 6 6 7 8 9 9 9 9 8 9 8 11 18 19 16 18 17 17 18 18 19 18 21 20 21 21 20
7 7 6 6 5 4 4 4 4 3 3 4 5 5 6 6 6 7 7 7 8 9 9 9 9 9 18 21 23 25 20 18 18 18 17 17 19 17 21 19 20 20
7 7 6 6 5 5 5 5 3 3 4 5 4 5 5 5 6 7 7 7 7 8 9 10 11 15 21 23 24 25 23 18 18 17 16 18 16 20 17 19 19 19
7 7 6 6 6 5 5 4 4 4 5 5 5 5 5 5 6 6 6 7 8 9 10 11 11 17 22 24 25 26 26 23 16 16 17 17 19 18 21 19 19 19
8 7 7 6 5 5 5 4 4 5 4 4 4 4 4 5 5 6 7 7 8 10 11 11 13 16 23 25 26 26 26 23 17 18 17 18 19 20 19 20 19 20
8 7 7 6 6 6 5 4 5 4 4 4 3 4 4 4 5 5 6 7 8 9 10 11 11 20 24 26 26 27 26 24 16 16 17 17 19 19 20 20 20 19
8 8 7 6 6 6 5 4 4 4 4 3 3 3 3 3 4 6 7 9 10 10 11 12 12 21 24 26 26 26 28 18 16 17 16 17 18 19 19 19 19 20
8 8 7 7 6 6 5 4 4 3 3 3 3 3 3 3 5 6 7 9 11 11 12 12 12 18 23 25 25 27 22 15 16 15 15 17 18 19 19 19 19 20
8 8 7 7 6 6 5 4 3 3 3 2 2 2 3 4 5 6 7 8 10 11 10 13 15 18 23 24 24 25 23 17 16 16 17 18 18 17 18 19 21 30
7 7 7 7 6 5 4 4 3 3 3 2 1 1 3 4 5 6 8 8 9 11 17 17 14 16 22 22 24 24 21 16 16 15 18 16 15 18 18 17 19 20
7 7 7 7 6 5 4 4 3 3 2 1 1 1 2 3 5 6 8 9 10 11 11 12 14 14 17 23 23 24 25 18 15 15 14 17 19 18 17 18 18 19
Wind_Direction
187 186 191 196 207 213 217 225 237 245 254 258 260 268 274 283 290 286 286 289 289 290 290 289 288 285 284 283 281 279 277 275 275 271 269 267 266 267 267 264 261 261
181 181 185 192 205 209 219 223 237 247 255 256 259 266 271 275 277 279 284 288 288 287 288 287 286 285 284 282 282 280 277 275 274 272 272 270 269 267 265 265 265 265
175 180 188 197 203 209 218 232 240 245 249 254 262 262 264 270 272 273 278 285 288 287 285 286 283 282 281 281 280 278 276 277 275 273 272 272 270 269 268 269 267 265
177 180 186 195 206 215 223 230 234 239 246 250 253 261 267 266 268 275 281 286 284 285 285 282 280 281 281 279 277 276 276 275 273 274 275 276 273 271 269 270 268 268
173 175 183 192 203 212 224 232 234 240 245 255 262 261 263 268 275 281 286 289 287 286 287 284 280 280 280 278 277 279 280 277 276 277 278 275 273 266 266 266 264 264
167 172 179 192 202 210 223 230 237 244 251 256 257 267 269 273 278 285 292 291 288 289 288 286 283 282 282 280 279 275 278 280 282 280 277 273 273 271 266 266 268 266
170 170 182 190 202 216 227 235 240 245 250 257 272 271 276 284 288 292 292 289 292 288 287 288 287 287 284 281 278 276 276 276 278 277 277 277 277 277 274 269 269 269
167 169 178 193 204 212 226 229 238 245 250 267 269 274 279 289 292 295 291 295 294 290 288 286 286 285 284 282 281 282 281 280 277 275 277 278 278 275 275 274 274 273
165 173 180 195 205 215 219 226 239 248 254 264 271 277 287 289 297 298 297 295 291 289 287 285 284 285 283 282 281 282 283 280 279 280 279 279 278 277 277 277 276 275
168 175 186 196 204 211 212 226 239 247 257 263 271 282 293 295 294 293 291 288 287 286 285 285 285 283 284 283 282 281 280 280 281 279 278 278 278 278 278 278 277 276
172 179 188 196 203 206 215 227 238 245 255 264 274 284 290 293 290 289 289 288 286 286 286 285 285 286 285 284 283 280 279 281 281 278 278 278 277 275 275 276 275 273
175 182 189 193 197 207 214 221 230 243 249 263 277 285 291 286 285 287 286 287 284 283 286 286 287 286 286 284 285 285 283 281 281 279 277 282 281 276 271 268 269 269
176 181 182 187 193 200 201 212 224 239 254 261 277 282 280 281 283 285 284 284 284 284 284 288 288 286 284 285 287 286 287 285 284 285 286 285 275 271 267 266 261 264
174 177 178 183 185 188 200 214 227 237 248 261 270 273 271 274 282 285 284 281 282 281 286 287 285 286 287 289 289 290 292 292 290 288 285 280 277 273 269 267 264 261
167 172 172 173 182 186 200 203 219 238 246 263 266 265 269 272 279 279 280 280 279 282 288 288 286 285 288 292 297 298 294 291 289 288 288 288 288 285 283 281 276 270
166 166 168 171 177 189 194 203 220 232 238 251 257 261 267 271 275 276 273 278 284 288 287 288 287 286 283 289 294 294 295 294 293 290 289 286 282 285 279 281 277 277
165 166 168 174 178 182 190 206 220 220 241 252 254 256 261 268 265 269 276 281 287 289 291 289 287 285 290 296 297 298 298 296 293 291 286 284 284 280 287 279 283 279
165 162 167 176 174 189 194 205 215 223 239 244 253 258 262 263 269 273 282 287 288 290 289 290 290 288 295 299 300 300 299 296 295 292 290 287 281 282 279 285 285 286
161 164 170 176 183 183 197 203 206 226 234 241 248 255 262 260 273 286 287 292 290 292 293 293 291 291 297 302 303 303 303 302 296 291 287 288 289 289 289 288 288 284
164 165 173 176 176 187 198 200 206 225 233 246 252 253 255 270 277 283 287 290 295 296 297 294 293 292 300 303 306 306 306 304 298 295 293 291 290 289 287 287 284 285
166 167 172 172 179 189 195 198 210 225 235 243 241 247 260 274 286 291 290 288 289 294 295 292 286 298 304 305 307 307 306 307 300 296 292 289 290 288 288 285 284 283
165 168 170 173 181 186 188 199 207 216 231 245 248 256 267 277 288 290 288 290 296 296 297 291 291 299 303 303 305 306 308 306 302 299 299 295 293 292 288 287 284 282
166 166 167 173 179 182 182 195 200 213 232 226 246 270 280 293 293 293 294 305 304 299 296 288 287 292 298 301 307 310 310 306 307 303 299 296 295 294 291 287 285 281
163 162 166 173 177 176 174 190 190 221 218 222 243 289 303 299 300 300 299 297 291 284 279 287 291 293 298 305 309 309 313 312 309 304 300 300 296 292 293 289 287 285
155 161 167 172 173 166 173 183 194 204 218 223 234 277 286 287 302 305 305 296 282 275 281 289 288 298 306 308 310 314 316 313 309 304 301 293 296 297 294 292 289 288
157 164 170 171 161 160 171 185 187 202 209 217 279 269 292 304 308 303 289 282 283 286 293 296 300 301 302 306 312 314 316 315 310 304 299 302 302 299 297 294 293 292